Weather History for KIRK - September, 2013

Change the Weather History Date:

Saturday, September 14, 2013

  Actual Average Record
Temperature  
Mean Temperature 60 °F 65 °F  
Max Temperature 79 °F 77 °F 98 °F (1939)
Min Temperature 40 °F 54 °F 36 °F (1923)
Degree Days  
Heating Degree Days 5 2  
Month to date heating degree days 7 20  
Since 1 July heating degree days 20 27  
Cooling Degree Days 0 3  
Month to date cooling degree days 145 58  
Year to date cooling degree days 955 902  
Growing Degree Days 10 (Base 50)    
Moisture  
Dew Point 43 °F    
Average Humidity 58    
Maximum Humidity 89    
Minimum Humidity 26    
Precipitation  
Precipitation 0.00 in 0.14 in 3.00 in (1993)
Month to date precipitation 0.63 2.12  
Year to date precipitation 30.52 29.53  
Sea Level Pressure  
Sea Level Pressure 30.10 in    
Wind  
Wind Speed 6 mph (SSE)    
Max Wind Speed 14 mph    
Max Gust Speed 22 mph    
Visibility 10 miles    
Events      
T = Trace of Precipitation, MM = Missing Value Source: NWS Daily Summary

Daily Weather History Graph

Daily Weather History Graph

Search for Another Location

Airport or City:

Trip Planner

Search our weather history database for the weather conditions in past years. The results will help you decide how hot, cold, wet, or windy it might be!

Date:

Astronomy

Sep. 14, 2013 Rise Set
Actual Time 6:50 AM CDT 7:20 PM CDT
Civil Twilight 6:23 AM CDT 7:47 PM CDT
Nautical Twilight 5:51 AM CDT 8:19 PM CDT
Astronomical Twilight 5:18 AM CDT 8:52 PM CDT
Moon 4:02 PM CDT (9/14) 1:22 AM CDT (9/14)
Length of Visible Light 13h 24m
Length of Day
12h 29m
Waxing Gibbous, 72% of the Moon is Illuminated
Sep 14
Waxing Gibbous
Sep 19
Full
Sep 26
Last Quarter
Oct 4
New
Oct 11
First Quarter

Hourly Weather History & Observations

Time (CDT) Temp. Windchill Dew Point Humidity Pressure Visibility Wind Dir Wind Speed Gust Speed Precip Events Conditions
12:55 AM 53.1 °F - 41.0 °F 64% 30.14 in 10.0 mi ESE 3.5 mph - N/A   Clear
1:55 AM 46.9 °F - 43.0 °F 86% 30.14 in 10.0 mi Calm Calm - N/A   Clear
2:55 AM 44.1 °F 42.5 °F 41.0 °F 89% 30.14 in 10.0 mi East 3.5 mph - N/A   Clear
3:55 AM 44.1 °F - 41.0 °F 89% 30.13 in 10.0 mi Calm Calm - N/A   Clear
4:55 AM 45.0 °F - 39.9 °F 82% 30.14 in 10.0 mi Calm Calm - N/A   Clear
5:55 AM 42.1 °F - 39.0 °F 89% 30.16 in 10.0 mi Calm Calm - N/A   Clear
6:55 AM 42.1 °F - 39.9 °F 92% 30.17 in 10.0 mi Calm Calm - N/A   Clear
7:55 AM 51.1 °F - 45.0 °F 80% 30.18 in 10.0 mi SE 4.6 mph - N/A   Clear
8:55 AM 57.0 °F - 48.0 °F 72% 30.18 in 10.0 mi SSE 10.4 mph - N/A   Clear
9:55 AM 63.0 °F - 48.0 °F 58% 30.18 in 10.0 mi SE 9.2 mph - N/A   Clear
10:55 AM 68.0 °F - 46.0 °F 45% 30.17 in 10.0 mi SSW 6.9 mph - N/A   Clear
11:55 AM 71.1 °F - 43.0 °F 36% 30.15 in 10.0 mi SSE 9.2 mph - N/A   Clear
12:55 PM 73.0 °F - 42.1 °F 33% 30.13 in 10.0 mi SE 8.1 mph - N/A   Clear
1:55 PM 75.9 °F - 42.1 °F 30% 30.10 in 10.0 mi SSE 6.9 mph 18.4 mph N/A   Clear
2:55 PM 77.0 °F - 41.0 °F 28% 30.07 in 10.0 mi SSE 8.1 mph - N/A   Clear
3:55 PM 77.0 °F - 39.9 °F 26% 30.04 in 10.0 mi South 15.0 mph - N/A   Clear
4:55 PM 78.1 °F - 42.1 °F 28% 30.03 in 10.0 mi SSW 9.2 mph - N/A   Clear
5:55 PM 75.0 °F - 41.0 °F 29% 30.02 in 10.0 mi South 8.1 mph - N/A   Clear
6:55 PM 64.9 °F - 45.0 °F 48% 30.03 in 10.0 mi South 4.6 mph - N/A   Clear
7:55 PM 60.1 °F - 46.0 °F 60% 30.02 in 10.0 mi SE 6.9 mph - N/A   Clear
8:55 PM 55.9 °F - 46.0 °F 69% 30.02 in 10.0 mi SSE 4.6 mph - N/A   Clear
9:55 PM 55.9 °F - 46.9 °F 72% 30.01 in 10.0 mi SE 6.9 mph - N/A   Clear
10:55 PM 57.0 °F - 48.0 °F 72% 30.01 in 10.0 mi SSE 6.9 mph - N/A   Clear
11:55 PM 55.9 °F - 46.9 °F 72% 30.00 in 10.0 mi SSE 6.9 mph - N/A   Clear